Malaga, WA

9:10 AM PDT on August 25, 2016 (GMT -0700)
Pangborn Memorial

Weather History for KEAT - November, 2013

Change the Weather History Date:

Friday, November 1, 2013

  Actual Average Record
Temperature  
Mean Temperature 38 °F 40 °F  
Max Temperature 54 °F 49 °F 64 °F (1997)
Min Temperature 22 °F 31 °F 15 °F (2002)
Degree Days  
Heating Degree Days 27 25  
Month to date heating degree days 27 25  
Since 1 July heating degree days 917 981  
Moisture  
Dew Point 35 °F    
Average Humidity 56    
Maximum Humidity 66    
Minimum Humidity 41    
Precipitation  
Precipitation 0.00 in 0.06 in 0.54 in (2005)
Month to date precipitation 0.00 0.06  
Year to date precipitation 10.63 12.40  
Snow  
Snow 0.00 in 0.00 in - ()
Month to date snowfall 0.0 0.0  
Since 1 July snowfall T 0.1  
Since 1 September snowfall T 0.1  
Snow Depth 0.00 in    
Sea Level Pressure  
Sea Level Pressure 30.13 in    
Wind  
Wind Speed 5 mph (East)    
Max Wind Speed 15 mph    
Max Gust Speed -    
Visibility 10 miles    
Events      
T = Trace of Precipitation, MM = Missing Value Source: NWS Daily Summary

Daily Weather History Graph

Daily Weather History Graph

Search for Another Location

Airport or City:

Trip Planner

Search our weather history database for the weather conditions in past years. The results will help you decide how hot, cold, wet, or windy it might be!

Date:

Astronomy

Nov. 01, 2013 Rise Set
Actual Time 7:44 AM PDT 5:43 PM PDT
Civil Twilight 7:12 AM PDT 6:15 PM PDT
Nautical Twilight 6:36 AM PDT 6:51 PM PDT
Astronomical Twilight 6:00 AM PDT 7:27 PM PDT
Moon 5:35 AM PDT (11/1) 4:44 PM PDT (11/1)
Length of Visible Light 11h 02m
Length of Day
9h 58m
Waning Crescent, 4% of the Moon is Illuminated
Nov 1
Waning Crescent
Nov 3
New
Nov 9
First Quarter
Nov 17
Full
Nov 25
Last Quarter

Hourly Weather History & Observations

Time (PDT) Temp. Windchill Dew Point Humidity Pressure Visibility Wind Dir Wind Speed Gust Speed Precip Events Conditions
12:55 AM 46.9 °F - 32.0 °F 56% 30.19 in 10.0 mi NNW 3.5 mph - N/A   Clear
1:55 AM 50.0 °F - 30.9 °F 48% 30.19 in 10.0 mi West 3.5 mph - N/A   Clear
2:55 AM 44.1 °F 42.5 °F 30.9 °F 60% 30.21 in 10.0 mi WNW 3.5 mph - N/A   Clear
3:55 AM 42.1 °F 37.1 °F 30.9 °F 65% 30.20 in 10.0 mi West 8.1 mph - N/A   Clear
4:55 AM 43.0 °F 38.8 °F 32.0 °F 65% 30.20 in 10.0 mi WNW 6.9 mph - N/A   Clear
5:55 AM 50.0 °F - 33.1 °F 52% 30.21 in 10.0 mi NW 13.8 mph - N/A   Clear
6:55 AM 51.1 °F - 34.0 °F 52% 30.21 in 10.0 mi NW 15.0 mph - N/A   Clear
7:55 AM 46.9 °F - 34.0 °F 61% 30.22 in 10.0 mi SSW 3.5 mph - N/A   Clear
8:55 AM 46.0 °F 43.9 °F 35.1 °F 66% 30.23 in 10.0 mi South 4.6 mph - N/A   Clear
9:55 AM 48.0 °F - 35.1 °F 61% 30.24 in 10.0 mi Calm Calm - N/A   Clear
10:55 AM 48.0 °F - 35.1 °F 61% 30.23 in 10.0 mi Calm Calm - N/A   Scattered Clouds
11:55 AM 54.0 °F - 36.0 °F 51% 30.21 in 10.0 mi Calm Calm - N/A   Scattered Clouds
12:55 PM 55.9 °F - 36.0 °F 47% 30.18 in 10.0 mi ESE 5.8 mph - N/A   Clear
1:55 PM 57.9 °F - 34.0 °F 41% 30.15 in 10.0 mi ESE 11.5 mph - N/A   Overcast
2:55 PM 57.9 °F - 36.0 °F 44% 30.13 in 10.0 mi SE 11.5 mph - N/A   Overcast
3:55 PM 57.0 °F - 37.0 °F 47% 30.12 in 10.0 mi East 8.1 mph - N/A   Overcast
4:55 PM 57.9 °F - 39.0 °F 49% 30.10 in 10.0 mi ESE 6.9 mph - N/A   Overcast
5:55 PM 55.0 °F - 39.9 °F 57% 30.07 in 10.0 mi East 6.9 mph - N/A   Overcast
6:55 PM 55.9 °F - 37.9 °F 51% 30.04 in 10.0 mi NE 4.6 mph - N/A   Scattered Clouds
7:55 PM 52.0 °F - 37.9 °F 59% 30.02 in 10.0 mi East 4.6 mph - N/A   Partly Cloudy
8:55 PM 51.1 °F - 37.9 °F 61% 30.00 in 10.0 mi Calm Calm - N/A   Clear
9:55 PM 50.0 °F - 37.0 °F 61% 29.97 in 10.0 mi Calm Calm - N/A   Scattered Clouds
10:55 PM 50.0 °F - 37.0 °F 61% 29.96 in 10.0 mi Calm Calm - N/A   Clear
11:55 PM 48.9 °F - 37.9 °F 66% 29.91 in 10.0 mi East 5.8 mph - 0.00 in   Overcast